Year,Month,Day,Hour,Minute,Value (Times are PST for temperature in C)
2018,10,16,00,00,9.30
2018,10,16,00,01,9.30
2018,10,16,00,02,9.20
2018,10,16,00,03,9.10
2018,10,16,00,04,9.10
2018,10,16,00,05,9.20
2018,10,16,00,06,9.20
2018,10,16,00,07,9.20
2018,10,16,00,08,9.20
2018,10,16,00,09,9.20
2018,10,16,00,10,9.10
2018,10,16,00,11,9.10
2018,10,16,00,12,9.00
2018,10,16,00,13,8.90
2018,10,16,00,14,8.80
2018,10,16,00,15,8.80
2018,10,16,00,16,8.80
2018,10,16,00,17,8.90
2018,10,16,00,18,8.90
2018,10,16,00,19,9.00
2018,10,16,00,20,9.00
2018,10,16,00,21,9.10
2018,10,16,00,22,9.10
2018,10,16,00,23,9.10
2018,10,16,00,24,9.10
2018,10,16,00,25,9.10
2018,10,16,00,26,9.10
2018,10,16,00,27,9.10
2018,10,16,00,28,9.10
2018,10,16,00,29,9.00
2018,10,16,00,30,9.00
2018,10,16,00,31,9.10
2018,10,16,00,32,9.10
2018,10,16,00,33,9.10
2018,10,16,00,34,9.10
2018,10,16,00,35,9.10
2018,10,16,00,36,9.20
2018,10,16,00,37,9.20
2018,10,16,00,38,9.20
2018,10,16,00,39,9.20
2018,10,16,00,40,9.30
2018,10,16,00,41,9.30
2018,10,16,00,42,9.50
2018,10,16,00,43,9.60
2018,10,16,00,44,9.70
2018,10,16,00,45,9.70
2018,10,16,00,46,9.70
2018,10,16,00,47,9.70
2018,10,16,00,48,9.70
2018,10,16,00,49,9.70
2018,10,16,00,50,9.70
2018,10,16,00,51,9.70
2018,10,16,00,52,9.60
2018,10,16,00,53,9.60
2018,10,16,00,54,9.50
2018,10,16,00,55,9.50
2018,10,16,00,56,9.40
2018,10,16,00,57,9.30
2018,10,16,00,58,9.20
2018,10,16,00,59,9.00
2018,10,16,01,00,8.90
2018,10,16,01,01,8.80
2018,10,16,01,02,8.80
2018,10,16,01,03,8.80
2018,10,16,01,04,8.80
2018,10,16,01,05,8.80
2018,10,16,01,06,8.70
2018,10,16,01,07,8.70
2018,10,16,01,08,8.80
2018,10,16,01,09,8.90
2018,10,16,01,10,8.90
2018,10,16,01,11,8.90
2018,10,16,01,12,8.90
2018,10,16,01,13,8.90
2018,10,16,01,14,8.80
2018,10,16,01,15,8.80
2018,10,16,01,16,8.80
2018,10,16,01,17,8.70
2018,10,16,01,18,8.70
2018,10,16,01,19,8.60
2018,10,16,01,20,8.60
2018,10,16,01,21,8.50
2018,10,16,01,22,8.40
2018,10,16,01,23,8.30
2018,10,16,01,24,8.30
2018,10,16,01,25,8.30
2018,10,16,01,26,8.20
2018,10,16,01,27,8.20
2018,10,16,01,28,8.20
2018,10,16,01,29,8.10
2018,10,16,01,30,8.10
2018,10,16,01,31,8.00
2018,10,16,01,32,7.90
2018,10,16,01,33,7.90
2018,10,16,01,34,7.80
2018,10,16,01,35,7.80
2018,10,16,01,36,7.80
2018,10,16,01,37,7.70
2018,10,16,01,38,7.70
2018,10,16,01,39,7.70
2018,10,16,01,40,7.70
2018,10,16,01,41,7.70
2018,10,16,01,42,7.70
2018,10,16,01,43,7.70
2018,10,16,01,44,7.70
2018,10,16,01,45,7.70
2018,10,16,01,46,7.80
2018,10,16,01,47,7.80
2018,10,16,01,48,7.80
2018,10,16,01,49,7.90
2018,10,16,01,50,7.90
2018,10,16,01,51,7.80
2018,10,16,01,52,7.80
2018,10,16,01,53,7.80
2018,10,16,01,54,7.80
2018,10,16,01,55,7.80
2018,10,16,01,56,7.80
2018,10,16,01,57,7.70
2018,10,16,01,58,7.70
2018,10,16,01,59,7.70
2018,10,16,02,00,7.70
2018,10,16,02,01,7.60
2018,10,16,02,02,7.60
2018,10,16,02,03,7.50
2018,10,16,02,04,7.50
2018,10,16,02,05,7.50
2018,10,16,02,06,7.40
2018,10,16,02,07,7.40
2018,10,16,02,08,7.40
2018,10,16,02,09,7.30
2018,10,16,02,10,7.30
2018,10,16,02,11,7.30
2018,10,16,02,12,7.30
2018,10,16,02,13,7.30
2018,10,16,02,14,7.30
2018,10,16,02,15,7.30
2018,10,16,02,16,7.30
2018,10,16,02,17,7.30
2018,10,16,02,18,7.30
2018,10,16,02,19,7.30
2018,10,16,02,20,7.30
2018,10,16,02,21,7.30
2018,10,16,02,22,7.30
2018,10,16,02,23,7.40
2018,10,16,02,24,7.50
2018,10,16,02,25,7.60
2018,10,16,02,26,7.60
2018,10,16,02,27,7.50
2018,10,16,02,28,7.60
2018,10,16,02,29,7.70
2018,10,16,02,30,7.70
2018,10,16,02,31,7.80
2018,10,16,02,32,7.80
2018,10,16,02,33,7.80
2018,10,16,02,34,7.80
2018,10,16,02,35,7.80
2018,10,16,02,36,7.80
2018,10,16,02,37,7.70
2018,10,16,02,38,7.70
2018,10,16,02,39,7.70
2018,10,16,02,40,7.60
2018,10,16,02,41,7.60
2018,10,16,02,42,7.60
2018,10,16,02,43,7.60
2018,10,16,02,44,7.50
2018,10,16,02,45,7.50
2018,10,16,02,46,7.50
2018,10,16,02,47,7.50
2018,10,16,02,48,7.60
2018,10,16,02,49,7.70
2018,10,16,02,50,7.70
2018,10,16,02,51,7.80
2018,10,16,02,52,7.80
2018,10,16,02,53,7.90
2018,10,16,02,54,8.00
2018,10,16,02,55,8.00
2018,10,16,02,56,8.00
2018,10,16,02,57,8.10
2018,10,16,02,58,8.10
2018,10,16,02,59,8.10
2018,10,16,03,00,8.10
2018,10,16,03,01,8.20
2018,10,16,03,02,8.20
2018,10,16,03,03,8.20
2018,10,16,03,04,8.10
2018,10,16,03,05,8.10
2018,10,16,03,06,8.10
2018,10,16,03,07,8.00
2018,10,16,03,08,8.00
2018,10,16,03,09,7.90
2018,10,16,03,10,7.90
2018,10,16,03,11,7.90
2018,10,16,03,12,7.90
2018,10,16,03,13,7.90
2018,10,16,03,14,7.80
2018,10,16,03,15,7.80
2018,10,16,03,16,7.80
2018,10,16,03,17,7.80
2018,10,16,03,18,7.80
2018,10,16,03,19,8.00
2018,10,16,03,20,8.00
2018,10,16,03,21,8.10
2018,10,16,03,22,8.10
2018,10,16,03,23,8.10
2018,10,16,03,24,8.10
2018,10,16,03,25,8.10
2018,10,16,03,26,8.20
2018,10,16,03,27,8.20
2018,10,16,03,28,8.20
2018,10,16,03,29,8.20
2018,10,16,03,30,8.20
2018,10,16,03,31,8.20
2018,10,16,03,32,8.30
2018,10,16,03,33,8.30
2018,10,16,03,34,8.30
2018,10,16,03,35,8.30
2018,10,16,03,36,8.30
2018,10,16,03,37,8.20
2018,10,16,03,38,8.30
2018,10,16,03,39,8.30
2018,10,16,03,40,8.40
2018,10,16,03,41,8.50
2018,10,16,03,42,8.50
2018,10,16,03,43,8.50
2018,10,16,03,44,8.50
2018,10,16,03,45,8.50
2018,10,16,03,46,8.50
2018,10,16,03,47,8.60
2018,10,16,03,48,8.50
2018,10,16,03,49,8.50
2018,10,16,03,50,8.60
2018,10,16,03,51,8.50
2018,10,16,03,52,8.50
2018,10,16,03,53,8.50
2018,10,16,03,54,8.50
2018,10,16,03,55,8.50
2018,10,16,03,56,8.50
2018,10,16,03,57,8.50
2018,10,16,03,58,8.50
2018,10,16,03,59,8.50
2018,10,16,04,00,8.50
2018,10,16,04,01,8.50
2018,10,16,04,02,8.40
2018,10,16,04,03,8.40
2018,10,16,04,04,8.40
2018,10,16,04,05,8.30
2018,10,16,04,06,8.30
2018,10,16,04,07,8.30
2018,10,16,04,08,8.30
2018,10,16,04,09,8.30
2018,10,16,04,10,8.30
2018,10,16,04,11,8.30
2018,10,16,04,12,8.40
2018,10,16,04,13,8.50
2018,10,16,04,14,8.50
2018,10,16,04,15,8.60
2018,10,16,04,16,8.60
2018,10,16,04,17,8.60
2018,10,16,04,18,8.60
2018,10,16,04,19,8.70
2018,10,16,04,20,8.80
2018,10,16,04,21,8.70
2018,10,16,04,22,8.70
2018,10,16,04,23,8.70
2018,10,16,04,24,8.80
2018,10,16,04,25,8.80
2018,10,16,04,26,8.80
2018,10,16,04,27,8.80
2018,10,16,04,28,8.80
2018,10,16,04,29,8.80
2018,10,16,04,30,8.80
2018,10,16,04,31,8.80
2018,10,16,04,32,8.80
2018,10,16,04,33,8.80
2018,10,16,04,34,8.70
2018,10,16,04,35,8.70
2018,10,16,04,36,8.70
2018,10,16,04,37,8.70
2018,10,16,04,38,8.60
2018,10,16,04,39,8.60
2018,10,16,04,40,8.60
2018,10,16,04,41,8.60
2018,10,16,04,42,8.60
2018,10,16,04,43,8.60
2018,10,16,04,44,8.60
2018,10,16,04,45,8.60
2018,10,16,04,46,8.60
2018,10,16,04,47,8.60
2018,10,16,04,48,8.60
2018,10,16,04,49,8.60
2018,10,16,04,50,8.60
2018,10,16,04,51,8.60
2018,10,16,04,52,8.60
2018,10,16,04,53,8.60
2018,10,16,04,54,8.60
2018,10,16,04,55,8.50
2018,10,16,04,56,8.60
2018,10,16,04,57,8.60
2018,10,16,04,58,8.60
2018,10,16,04,59,8.70
2018,10,16,05,00,8.70
2018,10,16,05,01,8.70
2018,10,16,05,02,8.60
2018,10,16,05,03,8.60
2018,10,16,05,04,8.60
2018,10,16,05,05,8.60
2018,10,16,05,06,8.60
2018,10,16,05,07,8.60
2018,10,16,05,08,8.60
2018,10,16,05,09,8.60
2018,10,16,05,10,8.70
2018,10,16,05,11,8.70
2018,10,16,05,12,8.70
2018,10,16,05,13,8.70
2018,10,16,05,14,8.70
2018,10,16,05,15,8.70
2018,10,16,05,16,8.70
2018,10,16,05,17,8.80
2018,10,16,05,18,8.80
2018,10,16,05,19,8.80
2018,10,16,05,20,8.80
2018,10,16,05,21,8.80
2018,10,16,05,22,8.90
2018,10,16,05,23,8.90
2018,10,16,05,24,8.90
2018,10,16,05,25,9.00
2018,10,16,05,26,9.00
2018,10,16,05,27,9.00
2018,10,16,05,28,9.00
2018,10,16,05,29,9.00
2018,10,16,05,30,9.00
2018,10,16,05,31,9.10
2018,10,16,05,32,9.10
2018,10,16,05,33,9.00
2018,10,16,05,34,9.00
2018,10,16,05,35,9.00
2018,10,16,05,36,9.00
2018,10,16,05,37,9.00
2018,10,16,05,38,9.00
2018,10,16,05,39,9.00
2018,10,16,05,40,8.90
2018,10,16,05,41,8.90
2018,10,16,05,42,8.90
2018,10,16,05,43,8.90
2018,10,16,05,44,8.80
2018,10,16,05,45,8.80
2018,10,16,05,46,8.80
2018,10,16,05,47,8.80
2018,10,16,05,48,8.80
2018,10,16,05,49,8.80
2018,10,16,05,50,8.80
2018,10,16,05,51,8.90
2018,10,16,05,52,8.90
2018,10,16,05,53,9.00
2018,10,16,05,54,9.00
2018,10,16,05,55,9.00
2018,10,16,05,56,9.00
2018,10,16,05,57,9.00
2018,10,16,05,58,9.00
2018,10,16,05,59,8.90
2018,10,16,06,00,8.90
2018,10,16,06,01,8.90
2018,10,16,06,02,8.90
2018,10,16,06,03,8.90
2018,10,16,06,04,8.90
2018,10,16,06,05,8.90
2018,10,16,06,06,8.80
2018,10,16,06,07,8.80
2018,10,16,06,08,8.80
2018,10,16,06,09,8.80
2018,10,16,06,10,8.80
2018,10,16,06,11,8.80
2018,10,16,06,12,8.80
2018,10,16,06,13,8.70
2018,10,16,06,14,8.70
2018,10,16,06,15,8.70
2018,10,16,06,16,8.70
2018,10,16,06,17,8.70
2018,10,16,06,18,8.60
2018,10,16,06,19,8.70
2018,10,16,06,20,8.70
2018,10,16,06,21,8.80
2018,10,16,06,22,8.80
2018,10,16,06,23,8.80
2018,10,16,06,24,8.80
2018,10,16,06,25,8.80
2018,10,16,06,26,8.80
2018,10,16,06,27,8.80
2018,10,16,06,28,8.70
2018,10,16,06,29,8.70
2018,10,16,06,30,8.80
2018,10,16,06,31,8.90
2018,10,16,06,32,8.90
2018,10,16,06,33,8.90
2018,10,16,06,34,8.80
2018,10,16,06,35,8.90
2018,10,16,06,36,8.90
2018,10,16,06,37,8.90
2018,10,16,06,38,8.80
2018,10,16,06,39,8.80
2018,10,16,06,40,8.80
2018,10,16,06,41,8.80
2018,10,16,06,42,8.80
2018,10,16,06,43,8.70
2018,10,16,06,44,8.70
2018,10,16,06,45,8.70
2018,10,16,06,46,8.70
2018,10,16,06,47,8.70
2018,10,16,06,48,8.70
2018,10,16,06,49,8.70
2018,10,16,06,50,8.70
2018,10,16,06,51,8.70
2018,10,16,06,52,8.70
2018,10,16,06,53,8.70
2018,10,16,06,54,8.60
2018,10,16,06,55,8.60
2018,10,16,06,56,8.60
2018,10,16,06,57,8.60
2018,10,16,06,58,8.60
2018,10,16,06,59,8.60
2018,10,16,07,00,8.60
2018,10,16,07,01,8.60
2018,10,16,07,02,8.60
2018,10,16,07,03,8.60
2018,10,16,07,04,8.60
2018,10,16,07,05,8.60
2018,10,16,07,06,8.60
2018,10,16,07,07,8.50
2018,10,16,07,08,8.50
2018,10,16,07,09,8.50
2018,10,16,07,10,8.50
2018,10,16,07,11,8.50
2018,10,16,07,12,8.50
2018,10,16,07,13,8.60
2018,10,16,07,14,8.50
2018,10,16,07,15,8.50
2018,10,16,07,16,8.50
2018,10,16,07,17,8.50
2018,10,16,07,18,8.50
2018,10,16,07,19,8.50
2018,10,16,07,20,8.50
2018,10,16,07,21,8.50
2018,10,16,07,22,8.50
2018,10,16,07,23,8.50
2018,10,16,07,24,8.50
2018,10,16,07,25,8.50
2018,10,16,07,26,8.50
2018,10,16,07,27,8.50
2018,10,16,07,28,8.60
2018,10,16,07,29,8.60
2018,10,16,07,30,8.60
2018,10,16,07,31,8.60
2018,10,16,07,32,8.60
2018,10,16,07,33,8.60
2018,10,16,07,34,8.60
2018,10,16,07,35,8.60
2018,10,16,07,36,8.60
2018,10,16,07,37,8.60
2018,10,16,07,38,8.50
2018,10,16,07,39,8.50
2018,10,16,07,40,8.50
2018,10,16,07,41,8.50
2018,10,16,07,42,8.60
2018,10,16,07,43,8.60
2018,10,16,07,44,8.70
2018,10,16,07,45,8.70
2018,10,16,07,46,8.70
2018,10,16,07,47,8.70
2018,10,16,07,48,8.70
2018,10,16,07,49,8.70
2018,10,16,07,50,8.70
2018,10,16,07,51,8.70
2018,10,16,07,52,8.70
2018,10,16,07,53,8.70
2018,10,16,07,54,8.70
2018,10,16,07,55,8.80
2018,10,16,07,56,8.80
2018,10,16,07,57,8.80
2018,10,16,07,58,8.80
2018,10,16,07,59,8.80
2018,10,16,08,00,8.80
2018,10,16,08,01,8.80
2018,10,16,08,02,8.80
2018,10,16,08,03,8.80
2018,10,16,08,04,8.80
2018,10,16,08,05,8.80
2018,10,16,08,06,8.80
2018,10,16,08,07,8.80
2018,10,16,08,08,8.90
2018,10,16,08,09,8.80
2018,10,16,08,10,8.80
2018,10,16,08,11,8.80
2018,10,16,08,12,8.90
2018,10,16,08,13,8.90
2018,10,16,08,14,8.90
2018,10,16,08,15,8.90
2018,10,16,08,16,8.90
2018,10,16,08,17,9.00
2018,10,16,08,18,9.00
2018,10,16,08,19,9.10
2018,10,16,08,20,9.10
2018,10,16,08,21,9.20
2018,10,16,08,22,9.20
2018,10,16,08,23,9.30
2018,10,16,08,24,9.30
2018,10,16,08,25,9.30
2018,10,16,08,26,9.30
2018,10,16,08,27,9.30
2018,10,16,08,28,9.40
2018,10,16,08,29,9.40
2018,10,16,08,30,9.40
2018,10,16,08,31,9.50
2018,10,16,08,32,9.50
2018,10,16,08,33,9.60
2018,10,16,08,34,9.60
2018,10,16,08,35,9.60
2018,10,16,08,36,9.60
2018,10,16,08,37,9.70
2018,10,16,08,38,9.70
2018,10,16,08,39,9.80
2018,10,16,08,40,9.80
2018,10,16,08,41,9.80
2018,10,16,08,42,9.80
2018,10,16,08,43,9.80
2018,10,16,08,44,9.90
2018,10,16,08,45,9.90
2018,10,16,08,46,9.90
2018,10,16,08,47,10.00
2018,10,16,08,48,10.00
2018,10,16,08,49,10.10
2018,10,16,08,50,10.10
2018,10,16,08,51,10.10
2018,10,16,08,52,10.20
2018,10,16,08,53,10.20
2018,10,16,08,54,10.30
2018,10,16,08,55,10.40
2018,10,16,08,56,10.50
2018,10,16,08,57,10.60
2018,10,16,08,58,10.70
2018,10,16,08,59,10.80
2018,10,16,09,00,10.90
2018,10,16,09,01,11.00
2018,10,16,09,02,11.10
2018,10,16,09,03,11.10
2018,10,16,09,04,11.20
2018,10,16,09,05,11.20
2018,10,16,09,06,11.30
2018,10,16,09,07,11.30
2018,10,16,09,08,11.40
2018,10,16,09,09,11.40
2018,10,16,09,10,11.40
2018,10,16,09,11,11.40
2018,10,16,09,12,11.40
2018,10,16,09,13,11.40
2018,10,16,09,14,11.50
2018,10,16,09,15,11.50
2018,10,16,09,16,11.50
2018,10,16,09,17,11.40
2018,10,16,09,18,11.50
2018,10,16,09,19,11.50
2018,10,16,09,20,11.50
2018,10,16,09,21,11.50
2018,10,16,09,22,11.60
2018,10,16,09,23,11.70
2018,10,16,09,24,11.80
2018,10,16,09,25,11.80
2018,10,16,09,26,11.90
2018,10,16,09,27,12.00
2018,10,16,09,28,12.00
2018,10,16,09,29,12.10
2018,10,16,09,30,12.20
2018,10,16,09,31,12.20
2018,10,16,09,32,12.30
2018,10,16,09,33,12.40
2018,10,16,09,34,12.50
2018,10,16,09,35,12.60
2018,10,16,09,36,12.70
2018,10,16,09,37,12.70
2018,10,16,09,38,12.80
2018,10,16,09,39,12.80
2018,10,16,09,40,12.90
2018,10,16,09,41,13.00
2018,10,16,09,42,13.10
2018,10,16,09,43,13.20
2018,10,16,09,44,13.30
2018,10,16,09,45,13.40
2018,10,16,09,46,13.50
2018,10,16,09,47,13.50
2018,10,16,09,48,13.60
2018,10,16,09,49,13.70
2018,10,16,09,50,13.70
2018,10,16,09,51,13.80
2018,10,16,09,52,13.80
2018,10,16,09,53,13.80
2018,10,16,09,54,13.90
2018,10,16,09,55,13.90
2018,10,16,09,56,13.90
2018,10,16,09,57,14.00
2018,10,16,09,58,14.00
2018,10,16,09,59,14.10
2018,10,16,10,00,14.10
2018,10,16,10,01,14.10
2018,10,16,10,02,14.20
2018,10,16,10,03,14.20
2018,10,16,10,04,14.30
2018,10,16,10,05,14.40
2018,10,16,10,06,14.40
2018,10,16,10,07,14.50
2018,10,16,10,08,14.50
2018,10,16,10,09,14.50
2018,10,16,10,10,14.60
2018,10,16,10,11,14.60
2018,10,16,10,12,14.60
2018,10,16,10,13,14.60
2018,10,16,10,14,14.60
2018,10,16,10,15,14.60
2018,10,16,10,16,14.60
2018,10,16,10,17,14.60
2018,10,16,10,18,14.60
2018,10,16,10,19,14.60
2018,10,16,10,20,14.60
2018,10,16,10,21,14.60
2018,10,16,10,22,14.60
2018,10,16,10,23,14.60
2018,10,16,10,24,14.60
2018,10,16,10,25,14.60
2018,10,16,10,26,14.60
2018,10,16,10,27,14.60
2018,10,16,10,28,14.50
2018,10,16,10,29,14.50
2018,10,16,10,30,14.60
2018,10,16,10,31,14.60
2018,10,16,10,32,14.60
2018,10,16,10,33,14.60
2018,10,16,10,34,14.70
2018,10,16,10,35,14.70
2018,10,16,10,36,14.80
2018,10,16,10,37,14.80
2018,10,16,10,38,14.80
2018,10,16,10,39,14.80
2018,10,16,10,40,14.80
2018,10,16,10,41,14.80
2018,10,16,10,42,14.80
2018,10,16,10,43,14.90
2018,10,16,10,44,14.90
2018,10,16,10,45,14.90
2018,10,16,10,46,14.90
2018,10,16,10,47,15.00
2018,10,16,10,48,15.00
2018,10,16,10,49,15.10
2018,10,16,10,50,15.20
2018,10,16,10,51,15.20
2018,10,16,10,52,15.30
2018,10,16,10,53,15.40
2018,10,16,10,54,15.40
2018,10,16,10,55,15.50
2018,10,16,10,56,15.60
2018,10,16,10,57,15.60
2018,10,16,10,58,15.70
2018,10,16,10,59,15.80
2018,10,16,11,00,15.80
2018,10,16,11,01,15.90
2018,10,16,11,02,15.90
2018,10,16,11,03,15.90
2018,10,16,11,04,16.00
2018,10,16,11,05,16.10
2018,10,16,11,06,16.10
2018,10,16,11,07,16.20
2018,10,16,11,08,16.30
2018,10,16,11,09,16.30
2018,10,16,11,10,16.30
2018,10,16,11,11,16.40
2018,10,16,11,12,16.40
2018,10,16,11,13,16.50
2018,10,16,11,14,16.60
2018,10,16,11,15,16.60
2018,10,16,11,16,16.70
2018,10,16,11,17,16.80
2018,10,16,11,18,16.80
2018,10,16,11,19,16.90
2018,10,16,11,20,17.00
2018,10,16,11,21,17.00
2018,10,16,11,22,17.10
2018,10,16,11,23,17.20
2018,10,16,11,24,17.20
2018,10,16,11,25,17.20
2018,10,16,11,26,17.20
2018,10,16,11,27,17.20
2018,10,16,11,28,17.20
2018,10,16,11,29,17.10
2018,10,16,11,30,17.20
2018,10,16,11,31,17.20
2018,10,16,11,32,17.30
2018,10,16,11,33,17.30
2018,10,16,11,34,17.30
2018,10,16,11,35,17.40
2018,10,16,11,36,17.40
2018,10,16,11,37,17.50
2018,10,16,11,38,17.60
2018,10,16,11,39,17.60
2018,10,16,11,40,17.60
2018,10,16,11,41,17.60
2018,10,16,11,42,17.60
2018,10,16,11,43,17.60
2018,10,16,11,44,17.70
2018,10,16,11,45,17.70
2018,10,16,11,46,17.70
2018,10,16,11,47,17.70
2018,10,16,11,48,17.70
2018,10,16,11,49,17.70
2018,10,16,11,50,17.70
2018,10,16,11,51,17.70
2018,10,16,11,52,17.70
2018,10,16,11,53,17.70
2018,10,16,11,54,17.70
2018,10,16,11,55,17.70
2018,10,16,11,56,17.70
2018,10,16,11,57,17.70
2018,10,16,11,58,17.80
2018,10,16,11,59,17.80
2018,10,16,12,00,17.80
2018,10,16,12,01,17.80
2018,10,16,12,02,17.80
2018,10,16,12,03,17.80
2018,10,16,12,04,17.80
2018,10,16,12,05,17.80
2018,10,16,12,06,17.80
2018,10,16,12,07,17.90
2018,10,16,12,08,17.90
2018,10,16,12,09,18.00
2018,10,16,12,10,18.10
2018,10,16,12,11,18.20
2018,10,16,12,12,18.20
2018,10,16,12,13,18.20
2018,10,16,12,14,18.20
2018,10,16,12,15,18.20
2018,10,16,12,16,18.20
2018,10,16,12,17,18.20
2018,10,16,12,18,18.20
2018,10,16,12,19,18.30
2018,10,16,12,20,18.20
2018,10,16,12,21,18.20
2018,10,16,12,22,18.20
2018,10,16,12,23,18.30
2018,10,16,12,24,18.30
2018,10,16,12,25,18.30
2018,10,16,12,26,18.30
2018,10,16,12,27,18.40
2018,10,16,12,28,18.50
2018,10,16,12,29,18.50
2018,10,16,12,30,18.70
2018,10,16,12,31,18.70
2018,10,16,12,32,18.70
2018,10,16,12,33,18.80
2018,10,16,12,34,18.80
2018,10,16,12,35,18.90
2018,10,16,12,36,18.90
2018,10,16,12,37,19.00
2018,10,16,12,38,19.00
2018,10,16,12,39,19.10
2018,10,16,12,40,19.20
2018,10,16,12,41,19.30
2018,10,16,12,42,19.30
2018,10,16,12,43,19.20
2018,10,16,12,44,19.20
2018,10,16,12,45,19.20
2018,10,16,12,46,19.20
2018,10,16,12,47,19.30
2018,10,16,12,48,19.40
2018,10,16,12,49,19.50
2018,10,16,12,50,19.50
2018,10,16,12,51,19.60
2018,10,16,12,52,19.60
2018,10,16,12,53,19.60
2018,10,16,12,54,19.60
2018,10,16,12,55,19.60
2018,10,16,12,56,19.60
2018,10,16,12,57,19.60
2018,10,16,12,58,19.70
2018,10,16,12,59,19.80
2018,10,16,13,00,19.80
2018,10,16,13,01,19.80
2018,10,16,13,02,19.80
2018,10,16,13,03,19.80
2018,10,16,13,04,19.80
2018,10,16,13,05,19.80
2018,10,16,13,06,19.90
2018,10,16,13,07,19.90
2018,10,16,13,08,19.90
2018,10,16,13,09,19.80
2018,10,16,13,10,19.80
2018,10,16,13,11,19.80
2018,10,16,13,12,19.80
2018,10,16,13,13,19.70
2018,10,16,13,14,19.60
2018,10,16,13,15,19.50
2018,10,16,13,16,19.50
2018,10,16,13,17,19.50
2018,10,16,13,18,19.50
2018,10,16,13,19,19.60
2018,10,16,13,20,19.60
2018,10,16,13,21,19.60
2018,10,16,13,22,19.70
2018,10,16,13,23,19.80
2018,10,16,13,24,19.90
2018,10,16,13,25,20.00
2018,10,16,13,26,20.10
2018,10,16,13,27,20.10
2018,10,16,13,28,20.10
2018,10,16,13,29,20.10
2018,10,16,13,30,20.10
2018,10,16,13,31,20.10
2018,10,16,13,32,20.10
2018,10,16,13,33,20.10
2018,10,16,13,34,20.10
2018,10,16,13,35,20.10
2018,10,16,13,36,20.20
2018,10,16,13,37,20.30
2018,10,16,13,38,20.30
2018,10,16,13,39,20.20
2018,10,16,13,40,20.10
2018,10,16,13,41,20.10
2018,10,16,13,42,20.10
2018,10,16,13,43,20.20
2018,10,16,13,44,20.30
2018,10,16,13,45,20.40
2018,10,16,13,46,20.50
2018,10,16,13,47,20.50
2018,10,16,13,48,20.60
2018,10,16,13,49,20.70
2018,10,16,13,50,20.60
2018,10,16,13,51,20.50
2018,10,16,13,52,20.50
2018,10,16,13,53,20.50
2018,10,16,13,54,20.50
2018,10,16,13,55,20.60
2018,10,16,13,56,20.60
2018,10,16,13,57,20.70
2018,10,16,13,58,20.70
2018,10,16,13,59,20.70
2018,10,16,14,00,20.70
2018,10,16,14,01,20.60
2018,10,16,14,02,20.70
2018,10,16,14,03,20.70
2018,10,16,14,04,20.80
2018,10,16,14,05,20.90
2018,10,16,14,06,20.90
2018,10,16,14,07,20.90
2018,10,16,14,08,20.90
2018,10,16,14,09,20.90
2018,10,16,14,10,20.90
2018,10,16,14,11,20.80
2018,10,16,14,12,20.80
2018,10,16,14,13,20.70
2018,10,16,14,14,20.70
2018,10,16,14,15,20.70
2018,10,16,14,16,20.70
2018,10,16,14,17,20.60
2018,10,16,14,18,20.50
2018,10,16,14,19,20.40
2018,10,16,14,20,20.30
2018,10,16,14,21,20.20
2018,10,16,14,22,20.20
2018,10,16,14,23,20.10
2018,10,16,14,24,20.20
2018,10,16,14,25,20.20
2018,10,16,14,26,20.30
2018,10,16,14,27,20.30
2018,10,16,14,28,20.30
2018,10,16,14,29,20.40
2018,10,16,14,30,20.40
2018,10,16,14,31,20.40
2018,10,16,14,32,20.40
2018,10,16,14,33,20.50
2018,10,16,14,34,20.60
2018,10,16,14,35,20.70
2018,10,16,14,36,20.70
2018,10,16,14,37,20.80
2018,10,16,14,38,20.80
2018,10,16,14,39,20.80
2018,10,16,14,40,20.80
2018,10,16,14,41,20.90
2018,10,16,14,42,21.00
2018,10,16,14,43,21.10
2018,10,16,14,44,21.10
2018,10,16,14,45,21.10
2018,10,16,14,46,21.10
2018,10,16,14,47,21.00
2018,10,16,14,48,21.00
2018,10,16,14,49,21.10
2018,10,16,14,50,21.10
2018,10,16,14,51,21.00
2018,10,16,14,52,21.00
2018,10,16,14,53,21.00
2018,10,16,14,54,21.10
2018,10,16,14,55,21.10
2018,10,16,14,56,21.00
2018,10,16,14,57,21.10
2018,10,16,14,58,21.10
2018,10,16,14,59,21.10
2018,10,16,15,00,21.20
2018,10,16,15,01,21.20
2018,10,16,15,02,21.10
2018,10,16,15,03,21.10
2018,10,16,15,04,21.10
2018,10,16,15,05,21.10
2018,10,16,15,06,21.10
2018,10,16,15,07,21.20
2018,10,16,15,08,21.20
2018,10,16,15,09,21.30
2018,10,16,15,10,21.30
2018,10,16,15,11,21.30
2018,10,16,15,12,21.30
2018,10,16,15,13,21.30
2018,10,16,15,14,21.30
2018,10,16,15,15,21.30
2018,10,16,15,16,21.30
2018,10,16,15,17,21.30
2018,10,16,15,18,21.30
2018,10,16,15,19,21.30
2018,10,16,15,20,21.20
2018,10,16,15,21,21.10
2018,10,16,15,22,21.00
2018,10,16,15,23,20.90
2018,10,16,15,24,20.80
2018,10,16,15,25,20.80
2018,10,16,15,26,20.70
2018,10,16,15,27,20.70
2018,10,16,15,28,20.70
2018,10,16,15,29,20.70
2018,10,16,15,30,20.60
2018,10,16,15,31,20.60
2018,10,16,15,32,20.70
2018,10,16,15,33,20.70
2018,10,16,15,34,20.70
2018,10,16,15,35,20.70
2018,10,16,15,36,20.60
2018,10,16,15,37,20.60
2018,10,16,15,38,20.60
2018,10,16,15,39,20.60
2018,10,16,15,40,20.60
2018,10,16,15,41,20.50
2018,10,16,15,42,20.40
2018,10,16,15,43,20.40
2018,10,16,15,44,20.40
2018,10,16,15,45,20.30
2018,10,16,15,46,20.30
2018,10,16,15,47,20.20
2018,10,16,15,48,20.10
2018,10,16,15,49,20.00
2018,10,16,15,50,19.80
2018,10,16,15,51,19.70
2018,10,16,15,52,19.60
2018,10,16,15,53,19.50
2018,10,16,15,54,19.50
2018,10,16,15,55,19.50
2018,10,16,15,56,19.50
2018,10,16,15,57,19.50
2018,10,16,15,58,19.50
2018,10,16,15,59,19.60
2018,10,16,16,00,19.60
2018,10,16,16,01,19.50
2018,10,16,16,02,19.40
2018,10,16,16,03,19.40
2018,10,16,16,04,19.30
2018,10,16,16,05,19.20
2018,10,16,16,06,19.20
2018,10,16,16,07,19.10
2018,10,16,16,08,19.10
2018,10,16,16,09,19.10
2018,10,16,16,10,19.10
2018,10,16,16,11,19.10
2018,10,16,16,12,19.00
2018,10,16,16,13,18.90
2018,10,16,16,14,18.90
2018,10,16,16,15,18.80
2018,10,16,16,16,18.70
2018,10,16,16,17,18.70
2018,10,16,16,18,18.60
2018,10,16,16,19,18.60
2018,10,16,16,20,18.60
2018,10,16,16,21,18.60
2018,10,16,16,22,18.70
2018,10,16,16,23,18.70
2018,10,16,16,24,18.70
2018,10,16,16,25,18.60
2018,10,16,16,26,18.60
2018,10,16,16,27,18.60
2018,10,16,16,28,18.60
2018,10,16,16,29,18.60
2018,10,16,16,30,18.60
2018,10,16,16,31,18.60
2018,10,16,16,32,18.60
2018,10,16,16,33,18.60
2018,10,16,16,34,18.50
2018,10,16,16,35,18.50
2018,10,16,16,36,18.50
2018,10,16,16,37,18.60
2018,10,16,16,38,18.70
2018,10,16,16,39,18.70
2018,10,16,16,40,18.60
2018,10,16,16,41,18.60
2018,10,16,16,42,18.50
2018,10,16,16,43,18.40
2018,10,16,16,44,18.40
2018,10,16,16,45,18.40
2018,10,16,16,46,18.30
2018,10,16,16,47,18.30
2018,10,16,16,48,18.30
2018,10,16,16,49,18.30
2018,10,16,16,50,18.30
2018,10,16,16,51,18.30
2018,10,16,16,52,18.30
2018,10,16,16,53,18.30
2018,10,16,16,54,18.30
2018,10,16,16,55,18.30
2018,10,16,16,56,18.30
2018,10,16,16,57,18.30
2018,10,16,16,58,18.30
2018,10,16,16,59,18.30
2018,10,16,17,00,18.30
2018,10,16,17,01,18.30
2018,10,16,17,02,18.30
2018,10,16,17,03,18.30
2018,10,16,17,04,18.30
2018,10,16,17,05,18.30
2018,10,16,17,06,18.30
2018,10,16,17,07,18.30
2018,10,16,17,08,18.40
2018,10,16,17,09,18.40
2018,10,16,17,10,18.40
2018,10,16,17,11,18.40
2018,10,16,17,12,18.40
2018,10,16,17,13,18.40
2018,10,16,17,14,18.40
2018,10,16,17,15,18.40
2018,10,16,17,16,18.40
2018,10,16,17,17,18.40
2018,10,16,17,18,18.40
2018,10,16,17,19,18.40
2018,10,16,17,20,18.40
2018,10,16,17,21,18.30
2018,10,16,17,22,18.20
2018,10,16,17,23,18.20
2018,10,16,17,24,18.10
2018,10,16,17,25,18.10
2018,10,16,17,26,18.00
2018,10,16,17,27,18.00
2018,10,16,17,28,17.90
2018,10,16,17,29,17.90
2018,10,16,17,30,17.90
2018,10,16,17,31,17.80
2018,10,16,17,32,17.80
2018,10,16,17,33,17.80
2018,10,16,17,34,17.80
2018,10,16,17,35,17.70
2018,10,16,17,36,17.70
2018,10,16,17,37,17.70
2018,10,16,17,38,17.70
2018,10,16,17,39,17.70
2018,10,16,17,40,17.70
2018,10,16,17,41,17.70
2018,10,16,17,42,17.70